This demonstration page uses our WeatherBlox Daily Observations layout. Learn more.

Left ArrowRight Arrow

39.01783, -85.05884

Hourly Observations for August 2, 2021

Temp ( °F °C ) Dew Point ( °F °C ) Humidity (%) Winds ( mph kmh ) Pressure ( in mb ) Visibility ( mi km ) Precip ( " mm )
12:52 am 00:52 Clear 65 18.3 54 12.2 68 68 NNW 7 11 30.04 1017 10 16 N/A
1:52 am 01:52 Clear 63 17.2 54 12.2 73 73 NNW 8 13 30.04 1017 10 16 N/A
2:52 am 02:52 Clear 62 16.7 54 12.2 75 75 N 6 9 30.04 1017 10 16 N/A
3:52 am 03:52 Clear 61 16.1 54 12.2 78 78 N 5 7 30.06 1018 8 13 N/A
4:52 am 04:52 Clear 60 15.6 54 12.2 80 80 N 6 9 30.06 1018 10 16 N/A
5:52 am 05:52 Clear 59 15 53 11.7 81 81 N 7 11 30.08 1019 10 16 N/A
6:52 am 06:52 Sunny 59 15 53 11.7 81 81 N 5 7 30.08 1019 7 11 N/A
7:52 am 07:52 Sunny 61 16.1 54 12.2 78 78 N 5 7 30.10 1019 8 13 N/A
8:52 am 08:52 Sunny 64 17.8 55 12.8 73 73 ENE 8 13 30.11 1020 8 13 N/A
9:52 am 09:52 Sunny 68 20 56 13.3 65 65 ENE 9 15 30.12 1020 8 13 N/A
10:52 am 10:52 Sunny 71 21.7 57 13.9 61 61 ENE 7 11 30.11 1020 9 14 N/A
11:52 am 11:52 Mostly Sunny 74 23.3 56 13.3 54 54 NE 5 7 30.11 1020 10 16 N/A
12:52 pm 12:52 Mostly Sunny 75 23.9 55 12.8 50 50 NNW 7 11 30.11 1020 10 16 N/A
1:52 pm 13:52 Mostly Cloudy 75 23.9 54 12.2 48 48 N 9 15 30.10 1019 10 16 N/A
2:52 pm 14:52 Mostly Cloudy 76 24.4 52 11.1 43 43 ENE 9 15 30.09 1019 10 16 N/A
3:52 pm 15:52 Mostly Cloudy 79 26.1 52 11.1 39 39 N N/A 30.07 1018 10 16 N/A
4:52 pm 16:52 Partly Cloudy 80 26.7 53 11.7 39 39 ENE 9 15 30.06 1018 10 16 N/A
5:52 pm 17:52 Mostly Sunny 79 26.1 52 11.1 39 39 NE 9 15 30.05 1018 10 16 N/A
6:52 pm 18:52 Mostly Sunny 77 25 52 11.1 42 42 E 8 13 30.04 1017 10 16 N/A
7:52 pm 19:52 Mostly Sunny 76 24.4 52 11.1 43 43 E 10 17 30.05 1018 10 16 N/A
8:52 pm 20:52 Mostly Clear 72 22.2 53 11.7 52 52 E 8 13 30.05 1018 10 16 N/A
9:52 pm 21:52 Clear 70 21.1 54 12.2 57 57 E 6 9 30.07 1018 10 16 N/A
10:52 pm 22:52 Clear 69 20.6 54 12.2 59 59 E 6 9 30.08 1019 10 16 N/A
11:52 pm 23:52 Clear 68 20 55 12.8 63 63 E 9 15 30.07 1018 10 16 N/A

Powered by AerisWeather